TimeEEST,TemperatureF,Dew PointF,Humidity,Sea Level PressureIn,VisibilityMPH,Wind Direction,Wind SpeedMPH,Gust SpeedMPH,PrecipitationIn,Events,Conditions,WindDirDegrees,DateUTC
12:00 AM,51,50,93,29.87,6,NNW,6.7,,,Rain,Light Rain,340,2013-09-06 21:00:00
12:00 AM,51.8,50.0,94,29.86,6.2,NNW,8.9,-,N/A,Rain,Light Rain,340,2013-09-06 21:00:00
12:30 AM,51.8,50.0,94,29.86,6.2,NNW,8.9,-,N/A,Rain,Light Rain,330,2013-09-06 21:30:00
1:00 AM,51.8,51.8,100,29.86,6.2,NNW,8.9,-,N/A,Rain,Light Rain,340,2013-09-06 22:00:00
1:30 AM,51.8,51.8,100,29.86,1.6,NNW,8.9,-,N/A,Rain,Light Rain,340,2013-09-06 22:30:00
2:00 AM,51.8,51.8,100,29.86,1.9,NNW,8.9,-,N/A,Rain,Light Rain,330,2013-09-06 23:00:00
2:30 AM,51.8,51.8,100,29.86,1.7,NNW,8.9,-,N/A,Rain,Light Rain,340,2013-09-06 23:30:00
3:00 AM,52,51,93,29.88,6,North,6.7,,,Rain,Light Rain,0,2013-09-07 00:00:00
3:00 AM,51.8,51.8,100,29.86,-9999.0,NNE,6.7,-,N/A,Rain,Light Rain,20,2013-09-07 00:00:00
3:30 AM,51.8,51.8,100,29.86,2.2,North,6.7,-,N/A,Rain,Light Rain,360,2013-09-07 00:30:00
4:00 AM,51.8,51.8,100,29.86,1.8,NNW,6.7,-,N/A,Rain,Light Rain,340,2013-09-07 01:00:00
4:11 AM,51.8,51.8,100,29.86,1.7,North,6.7,-,N/A,,Overcast,350,2013-09-07 01:11:00
4:30 AM,51.8,51.8,100,29.86,6.2,NNW,8.9,-,N/A,,Overcast,330,2013-09-07 01:30:00
5:00 AM,51.8,51.8,100,29.89,6.2,NNW,8.9,-,N/A,,Overcast,330,2013-09-07 02:00:00
5:30 AM,51.8,51.8,100,29.89,6.2,NNW,8.9,-,N/A,,Overcast,330,2013-09-07 02:30:00
6:00 AM,52,51,96,29.90,6,NNW,6.7,,,Rain,Light Rain,340,2013-09-07 03:00:00
6:00 AM,51.8,51.8,100,29.89,5.0,NNW,6.7,-,N/A,,Overcast,340,2013-09-07 03:00:00
6:30 AM,53.6,51.8,94,29.89,3.1,NNW,6.7,-,N/A,,Overcast,340,2013-09-07 03:30:00
6:41 AM,53.6,51.8,94,29.89,1.7,NNW,6.7,-,N/A,Rain,Light Rain,340,2013-09-07 03:41:00
7:00 AM,53.6,51.8,94,29.92,2.8,NW,6.7,-,N/A,Rain,Light Rain,320,2013-09-07 04:00:00
7:30 AM,53.6,51.8,94,29.92,6.2,NNW,4.5,-,N/A,Rain,Light Rain,330,2013-09-07 04:30:00
8:00 AM,53.6,53.6,100,29.92,6.2,NNW,8.9,-,N/A,Rain,Light Rain,340,2013-09-07 05:00:00
8:19 AM,53.6,53.6,100,29.92,-9999.0,NNW,8.9,-,N/A,Rain,Light Rain,330,2013-09-07 05:19:00
8:30 AM,53.6,53.6,100,29.92,1.8,NNW,8.9,-,N/A,Rain,Light Rain,340,2013-09-07 05:30:00
9:00 AM,54,53,93,29.94,6,North,6.7,,,Rain,Rain,350,2013-09-07 06:00:00
9:00 AM,55.4,53.6,94,29.92,6.2,NNW,11.2,-,N/A,,Overcast,340,2013-09-07 06:00:00
9:30 AM,55.4,53.6,94,29.95,6.2,NNW,11.2,-,N/A,,Overcast,340,2013-09-07 06:30:00
10:00 AM,55.4,53.6,94,29.95,6.2,North,11.2,-,N/A,Rain,Light Rain,360,2013-09-07 07:00:00
10:30 AM,55.4,53.6,94,29.95,6.2,North,11.2,-,N/A,,Overcast,350,2013-09-07 07:30:00
11:00 AM,55.4,53.6,94,29.95,6.2,North,8.9,-,N/A,Rain,Light Rain,360,2013-09-07 08:00:00
11:30 AM,55.4,53.6,94,29.95,6.2,North,8.9,-,N/A,,Overcast,350,2013-09-07 08:30:00
12:00 PM,57.2,53.6,88,29.95,6.2,NNW,11.2,-,N/A,,Overcast,340,2013-09-07 09:00:00
12:30 PM,59.0,53.6,82,29.98,6.2,NNW,11.2,-,N/A,,Overcast,340,2013-09-07 09:30:00
1:00 PM,57.2,51.8,82,29.98,6.2,NNW,11.2,-,N/A,,Overcast,340,2013-09-07 10:00:00
1:30 PM,59.0,53.6,82,29.98,6.2,North,6.7,-,N/A,,Mostly Cloudy,350,2013-09-07 10:30:00
2:00 PM,60.8,53.6,77,29.98,6.2,NNW,6.7,-,N/A,,Mostly Cloudy,330,2013-09-07 11:00:00
2:30 PM,59.0,53.6,82,29.98,6.2,NNW,11.2,-,N/A,,Mostly Cloudy,340,2013-09-07 11:30:00
3:00 PM,59,53,76,29.98,12,NNW,6.7,,,,Partly Cloudy,330,2013-09-07 12:00:00
3:00 PM,60.8,53.6,77,29.98,6.2,NW,11.2,-,N/A,,Mostly Cloudy,320,2013-09-07 12:00:00
3:30 PM,60.8,53.6,77,29.98,6.2,NW,11.2,-,N/A,,Overcast,320,2013-09-07 12:30:00
4:00 PM,60.8,53.6,77,29.98,6.2,NW,11.2,-,N/A,,Overcast,320,2013-09-07 13:00:00
4:30 PM,60.8,53.6,77,29.98,6.2,NW,13.4,-,N/A,,Overcast,320,2013-09-07 13:30:00
5:00 PM,62.6,53.6,72,29.98,6.2,NW,11.2,-,N/A,,Overcast,320,2013-09-07 14:00:00
5:30 PM,60.8,53.6,77,30.01,6.2,NW,11.2,-,N/A,,Overcast,320,2013-09-07 14:30:00
6:00 PM,61,53,68,30.00,12,NNW,6.7,,,,Overcast,340,2013-09-07 15:00:00
6:00 PM,60.8,53.6,77,30.01,6.2,NNW,11.2,-,N/A,,Overcast,330,2013-09-07 15:00:00
6:30 PM,60.8,53.6,77,30.01,6.2,NW,11.2,-,N/A,,Overcast,320,2013-09-07 15:30:00
7:00 PM,60.8,53.6,77,30.01,6.2,NW,11.2,-,N/A,,Overcast,320,2013-09-07 16:00:00
7:30 PM,60.8,53.6,77,30.01,6.2,NNW,6.7,-,N/A,Rain,Light Rain,340,2013-09-07 16:30:00
8:00 PM,59.0,55.4,88,30.04,4.3,North,8.9,-,N/A,Rain,Light Rain,360,2013-09-07 17:00:00
8:30 PM,59.0,55.4,88,30.04,6.2,NNW,8.9,-,N/A,,Overcast,340,2013-09-07 17:30:00
9:00 PM,58,55,88,30.06,12,North,6.7,,,Rain,Light Rain,350,2013-09-07 18:00:00
9:00 PM,57.2,55.4,94,30.06,6.2,North,6.7,-,N/A,,Overcast,350,2013-09-07 18:00:00
9:30 PM,57.2,55.4,94,30.06,6.2,North,6.7,-,N/A,,Mostly Cloudy,10,2013-09-07 18:30:00
10:00 PM,57.2,53.6,88,30.06,6.2,NNE,6.7,-,N/A,,Mostly Cloudy,20,2013-09-07 19:00:00
10:30 PM,57.2,51.8,82,30.09,6.2,NNE,13.4,-,N/A,,Mostly Cloudy,20,2013-09-07 19:30:00
11:00 PM,55.4,50.0,82,30.09,6.2,NNE,11.2,-,N/A,,Mostly Cloudy,30,2013-09-07 20:00:00
11:30 PM,55.4,50.0,82,30.09,6.2,NNE,11.2,-,N/A,,Scattered Clouds,30,2013-09-07 20:30:00